This demonstration page uses our WeatherBlox Daily Observations layout. Learn more.

36.19886, -115.1175

Hourly Observations for July 3, 2019

Temp ( °F °C ) Dew Point ( °F °C ) Humidity (%) Winds ( mph kmh ) Pressure ( in mb ) Visibility ( mi km ) Precip ( " mm )
12:53 am 00:53 Clear 86 30 25 -3.9 11 11 SW 15 24 29.68 1005 10 16.09344 0 0
1:53 am 01:53 Clear 83 28.3 25 -3.9 12 12 SSE 9 15 29.68 1005 10 16.09344 0 0
2:53 am 02:53 Clear 82 27.8 29 -1.7 14 14 S 8 13 29.68 1005 10 16.09344 0 0
3:53 am 03:53 Clear 80 26.7 32 0 17 17 SSE 8 13 29.68 1005 10 16.09344 0 0
4:53 am 04:53 Clear 78 25.6 30 -1.1 17 17 S 8 13 29.68 1005 10 16.09344 0 0
5:53 am 05:53 Sunny 77 25 29 -1.7 17 17 Calm 29.71 1006 10 16.09344 0 0
6:53 am 06:53 Sunny 79 26.1 32 0 18 18 N 5 7 29.74 1007 10 16.09344 0 0
7:53 am 07:53 Sunny 82 27.8 28 -2.2 14 14 Calm 29.74 1007 10 16.09344 0 0
8:53 am 08:53 Sunny 85 29.4 28 -2.2 13 13 S 6 9 29.74 1007 10 16.09344 0 0
9:53 am 09:53 Sunny 88 31.1 29 -1.7 12 12 VRB 7 11 29.74 1007 10 16.09344 0 0
10:53 am 10:53 Sunny 91 32.8 28 -2.2 10 10 SSE 13 20 29.71 1006 10 16.09344 0 0
11:53 am 11:53 Sunny 97 36.1 24 -4.4 7 7 SSW 17 28 29.71 1006 10 16.09344 0 0
12:00 pm 12:00 Sunny 97 36.1 24 -4.4 7 7 SW 17 28 29.53 1000 10 16.09344 0 0
12:53 pm 12:53 Sunny 98 36.7 25 -3.9 7 7 S 24 39 29.68 1005 10 16.09344 0 0
1:53 pm 13:53 Sunny 99 37.2 24 -4.4 7 7 SSW 20 31 29.65 1004 10 16.09344 0 0
2:53 pm 14:53 Sunny 99 37.2 23 -5 6 6 SW 24 39 29.65 1004 10 16.09344 0 0
3:53 pm 15:53 Sunny 99 37.2 23 -5 6 6 SW 18 30 29.65 1004 10 16.09344 0 0
4:53 pm 16:53 Sunny 97 36.1 26 -3.3 8 8 SSW 20 31 29.65 1004 10 16.09344 0 0
5:53 pm 17:53 Sunny 98 36.7 26 -3.3 8 8 SSW 18 30 29.62 1003 10 16.09344 0 0
6:53 pm 18:53 Sunny 96 35.6 23 -5 7 7 SW 20 31 29.62 1003 10 16.09344 0 0
7:53 pm 19:53 Sunny 94 34.4 29 -1.7 10 10 SSW 10 17 29.65 1004 10 16.09344 0 0
8:53 pm 20:53 Clear 92 33.3 29 -1.7 10 10 SSW 12 19 29.65 1004 10 16.09344 0 0
9:53 pm 21:53 Clear 90 32.2 29 -1.7 11 11 SSW 10 17 29.68 1005 10 16.09344 0 0
10:53 pm 22:53 Clear 89 31.7 28 -2.2 11 11 SSW 8 13 29.68 1005 10 16.09344 0 0
11:53 pm 23:53 Clear 86 30 27 -2.8 12 12 SSW 16 26 29.68 1005 10 16.09344 0 0

Powered by AerisWeather